This is the latest recevied weather packets stored in our database for station/object KO4WIL-13. If no packets are shown the sender has not sent any weather packets the latest 10 day(s).
| Time | Temp. | Humidity | Pressure | Rain* | Wind** | Luminosity | Snow |
|---|---|---|---|---|---|---|---|
| 1777581925 | 17.22° C | 49% | 965.5 hPa | 0 mm | - | - | - |
| 1777581623 | 17.22° C | 49% | 965.7 hPa | 0 mm | - | - | - |
| 1777581321 | 17.22° C | 48% | 965.8 hPa | 0 mm | - | - | - |
| 1777581019 | 17.22° C | 48% | 965.8 hPa | 0 mm | - | - | - |
| 1777580717 | 17.22° C | 44% | 965.7 hPa | 0 mm | - | - | - |
| 1777580415 | 17.22° C | 47% | 965.8 hPa | 0 mm | - | - | - |
| 1777580113 | 17.22° C | 47% | 965.8 hPa | 0 mm | - | - | - |
| 1777579811 | 17.22° C | 48% | 965.8 hPa | 0 mm | - | - | - |
| 1777579509 | 17.22° C | 48% | 965.7 hPa | 0 mm | - | - | - |
| 1777579207 | 17.22° C | 51% | 965.7 hPa | 0 mm | - | - | - |
| 1777578905 | 17.22° C | 50% | 965.7 hPa | 0 mm | - | - | - |
| 1777578603 | 17.22° C | 51% | 965.7 hPa | 0 mm | - | - | - |
| 1777578301 | 17.22° C | 49% | 965.7 hPa | 0 mm | - | - | - |
| 1777577999 | 17.22° C | 48% | 965.8 hPa | 0 mm | - | - | - |
| 1777577697 | 17.22° C | 50% | 965.9 hPa | 0 mm | - | - | - |
| 1777577395 | 17.78° C | 46% | 966 hPa | 0 mm | - | - | - |
| 1777577093 | 17.78° C | 47% | 965.9 hPa | 0 mm | - | - | - |
| 1777576791 | 17.78° C | 52% | 965.9 hPa | 0 mm | - | - | - |
| 1777576489 | 17.78° C | 50% | 965.9 hPa | 0 mm | - | - | - |
| 1777576187 | 17.22° C | 52% | 965.9 hPa | 0 mm | - | - | - |
| 1777575885 | 17.22° C | 51% | 966 hPa | 0 mm | - | - | - |
| 1777575583 | 17.22° C | 50% | 965.9 hPa | 0 mm | - | - | - |
| 1777575281 | 17.22° C | 50% | 965.8 hPa | 0 mm | - | - | - |
| 1777574979 | 17.22° C | 50% | 965.9 hPa | 0 mm | - | - | - |
| 1777574677 | 16.67° C | 53% | 966 hPa | 0 mm | - | - | - |
* Rain latest hour (hover to see other rain measurements)
** Current wind speed in m/s (hover to see current wind gust speed)